Consulta les dades en temps real de l'estació meteorològica de Calldetenes
| Hora UTC | 02:45 |
|---|---|
| Temperatura | 7.5 ºC |
| Sòl 15 cm | 7.2 ºC |
| Humitat | 96.4 % |
| Pressió | 1014.1 hPa |
| Pluja | 0.0 mm |
| Velocitat vent | 4.2 km/h |
| Direcció vent | SE |
| Radiació solar | 0.1 W/m² |
| Temperatura (ºC) | Humitat (%) | Pressió (hPa) | Velocitat vent (km/h) | Precipitació (mm) | Radiació solar (W/m²) | ||||||||||||||
|---|---|---|---|---|---|---|---|---|---|---|---|---|---|---|---|---|---|---|---|
| Hora UTC | Aire | Sòl 15 cm | Humitat | Pressió | Vel. | Dir. | Vel. Max | Dir. | Intent. màx 5 min. | Rad. Sol. | |||||||||
| 00:05 | 11.2 | 11.3 | 82.7 | 1014.7 | 2.8 | NNW | 2.8 | N | 0.0 | 0.1 | |||||||||
| 00:10 | 11.2 | 11.2 | 83.7 | 1014.7 | 2.9 | NNW | 7.8 | N | 0.0 | 0.1 | |||||||||
| 00:15 | 11.1 | 11.1 | 84.2 | 1014.7 | 3.6 | NW | 5.6 | NNW | 0.0 | 0.1 | |||||||||
| 00:20 | 10.9 | 10.9 | 84.7 | 1014.7 | 3.7 | NNW | 5.6 | NW | 0.0 | 0.1 | |||||||||
| 00:25 | 10.8 | 10.7 | 85.5 | 1014.6 | 2.9 | NNW | 6.0 | NNW | 0.0 | 0.1 | |||||||||
| 00:30 | 10.7 | 10.6 | 85.6 | 1014.6 | 1.8 | N | 4.2 | N | 0.0 | 0.1 | |||||||||
| 00:35 | 10.6 | 10.4 | 86.5 | 1014.6 | 2.6 | NE | 3.9 | ENE | 0.0 | 0.1 | |||||||||
| 00:40 | 10.6 | 10.3 | 88.5 | 1014.6 | 4.3 | ESE | 6.4 | ESE | 0.0 | 0.1 | |||||||||
| 00:45 | 10.3 | 10.1 | 88.2 | 1014.5 | 4.1 | ESE | 5.6 | ESE | 0.0 | 0.1 | |||||||||
| 00:50 | 9.9 | 9.8 | 89.5 | 1014.5 | 2.8 | ESE | 4.2 | ESE | 0.0 | 0.1 | |||||||||
| 00:55 | 9.5 | 9.4 | 90.7 | 1014.5 | 2.6 | E | 3.5 | E | 0.0 | 0.1 | |||||||||
| 01:00 | 9.3 | 9.1 | 92.8 | 1014.5 | 4.2 | ESE | 5.6 | ESE | 0.0 | 0.2 | |||||||||
| 01:05 | 9.6 | 9.0 | 93.6 | 1014.4 | 3.8 | ESE | 5.3 | ESE | 0.0 | 0.1 | |||||||||
| 01:10 | 9.3 | 9.0 | 92.3 | 1014.4 | 5.1 | ESE | 6.7 | ESE | 0.0 | 0.1 | |||||||||
| 01:15 | 9.0 | 8.8 | 92.4 | 1014.3 | 4.6 | ESE | 7.1 | ESE | 0.0 | 0.1 | |||||||||
| 01:20 | 8.5 | 8.5 | 93.4 | 1014.3 | 1.9 | ESE | 3.2 | ESE | 0.0 | 0.1 | |||||||||
| 01:25 | 8.1 | 8.2 | 94.4 | 1014.3 | 0.2 | ESE | 2.1 | ESE | 0.0 | 0.1 | |||||||||
| 01:30 | 7.9 | 7.9 | 95.4 | 1014.3 | 0.2 | SE | 1.8 | SE | 0.0 | 0.2 | |||||||||
| 01:35 | 7.7 | 7.7 | 96.2 | 1014.2 | 2.6 | ESE | 6.0 | ESE | 0.0 | 0.1 | |||||||||
| 01:40 | 7.8 | 7.7 | 96.9 | 1014.2 | 4.1 | ESE | 6.0 | ESE | 0.0 | 0.1 | |||||||||
| 01:45 | 7.6 | 7.7 | 96.1 | 1014.2 | 4.5 | ESE | 8.5 | ESE | 0.0 | 0.1 | |||||||||
| 01:50 | 7.9 | 7.6 | 97.3 | 1014.2 | 6.4 | ESE | 8.1 | ESE | 0.0 | 0.1 | |||||||||
| 01:55 | 7.6 | 7.6 | 95.1 | 1014.2 | 5.4 | E | 6.4 | E | 0.0 | 0.1 | |||||||||
| 02:00 | 7.4 | 7.4 | 96.8 | 1014.2 | 5.5 | E | 7.1 | ESE | 0.0 | 0.1 | |||||||||
| 02:05 | 7.6 | 7.4 | 97.5 | 1014.3 | 5.2 | E | 7.8 | ESE | 0.0 | 0.1 | |||||||||
| 02:10 | 7.3 | 7.4 | 96.6 | 1014.3 | 4.8 | E | 7.4 | ESE | 0.0 | 0.1 | |||||||||
| 02:15 | 7.9 | 7.5 | 97.4 | 1014.2 | 7.2 | ESE | 9.2 | ESE | 0.0 | 0.1 | |||||||||
| 02:20 | 7.6 | 7.7 | 95.2 | 1014.2 | 6.0 | ESE | 8.5 | ESE | 0.0 | 0.1 | |||||||||
| 02:25 | 7.3 | 7.6 | 95.4 | 1014.1 | 5.0 | ESE | 7.1 | E | 0.0 | 0.1 | |||||||||
| 02:30 | 7.5 | 7.4 | 96.9 | 1014.1 | 5.6 | ESE | 7.8 | ESE | 0.0 | 0.1 | |||||||||
| 02:35 | 7.3 | 7.2 | 95.6 | 1014.1 | 4.6 | ESE | 6.4 | ESE | 0.0 | 0.1 | |||||||||
| 02:40 | 7.5 | 7.1 | 96.8 | 1014.1 | 5.8 | ESE | 7.1 | ESE | 0.0 | 0.1 | |||||||||
| 02:45 | 7.5 | 7.2 | 96.4 | 1014.1 | 4.2 | SE | 7.1 | ESE | 0.0 | 0.1 | |||||||||
| Màxima | 11.2 | 11.3 | 97.5 | 1014.7 | 7.2 | ESE | 9.2 | ESE | 0.0 | 0.2 | |||||||||
| Mínima | 7.3 | 7.1 | 82.7 | 1014.1 | |||||||||||||||
| Total | 0.0 | ||||||||||||||||||